TimeEDT,TemperatureF,Dew PointF,Humidity,Sea Level PressureIn,VisibilityMPH,Wind Direction,Wind SpeedMPH,Gust SpeedMPH,PrecipitationIn,Events,Conditions,WindDirDegrees,DateUTC
12:36 AM,44.6,37.4,76,30.08,10.0,North,6.9,-,N/A,,Mostly Cloudy,350,2013-04-24 04:36:00
12:52 AM,45.0,39.0,80,30.08,10.0,North,10.4,-,N/A,,Overcast,350,2013-04-24 04:52:00
1:52 AM,45.0,39.0,80,30.06,10.0,North,4.6,-,N/A,,Overcast,360,2013-04-24 05:52:00
2:52 AM,45.0,39.0,80,30.03,10.0,NNW,6.9,-,N/A,,Overcast,340,2013-04-24 06:52:00
3:52 AM,45.0,39.9,82,30.03,10.0,NNW,5.8,-,N/A,,Overcast,330,2013-04-24 07:52:00
4:24 AM,44.6,39.2,81,30.02,10.0,NNW,5.8,-,N/A,,Scattered Clouds,340,2013-04-24 08:24:00
4:52 AM,44.1,39.0,82,30.02,10.0,NNW,4.6,-,N/A,,Partly Cloudy,330,2013-04-24 08:52:00
5:52 AM,43.0,37.9,82,30.04,10.0,WNW,4.6,-,N/A,,Clear,290,2013-04-24 09:52:00
6:52 AM,45.0,41.0,86,30.05,10.0,WNW,3.5,-,N/A,,Clear,290,2013-04-24 10:52:00
7:52 AM,48.0,41.0,77,30.06,10.0,WSW,4.6,-,N/A,,Clear,240,2013-04-24 11:52:00
8:52 AM,48.9,41.0,74,30.04,10.0,SSW,6.9,-,N/A,,Clear,210,2013-04-24 12:52:00
9:52 AM,51.1,42.1,71,30.03,10.0,SW,9.2,-,N/A,,Clear,220,2013-04-24 13:52:00
10:52 AM,52.0,42.1,69,30.01,10.0,SSW,11.5,-,N/A,,Clear,200,2013-04-24 14:52:00
11:52 AM,57.0,44.1,62,29.99,10.0,SW,15.0,-,N/A,,Clear,220,2013-04-24 15:52:00
12:52 PM,59.0,44.1,58,29.95,10.0,SW,11.5,-,N/A,,Clear,230,2013-04-24 16:52:00
1:52 PM,62.1,45.0,53,29.93,10.0,SW,12.7,-,N/A,,Clear,230,2013-04-24 17:52:00
2:52 PM,61.0,46.0,58,29.92,10.0,SSW,13.8,-,N/A,,Clear,200,2013-04-24 18:52:00
3:52 PM,60.1,46.0,60,29.90,10.0,South,17.3,-,N/A,,Clear,190,2013-04-24 19:52:00
4:52 PM,60.1,46.9,62,29.89,10.0,South,13.8,-,N/A,,Clear,190,2013-04-24 20:52:00
5:52 PM,53.1,46.0,77,29.90,10.0,South,16.1,-,N/A,,Clear,190,2013-04-24 21:52:00
6:40 PM,50.0,46.4,87,29.89,7.0,South,13.8,-,N/A,,Scattered Clouds,190,2013-04-24 22:40:00
6:49 PM,50.0,46.4,87,29.89,7.0,South,15.0,-,N/A,,Mostly Cloudy,180,2013-04-24 22:49:00
6:52 PM,50.0,46.0,86,29.89,7.0,South,17.3,-,N/A,,Mostly Cloudy,190,2013-04-24 22:52:00
7:52 PM,50.0,46.9,89,29.90,7.0,South,10.4,-,N/A,,Overcast,190,2013-04-24 23:52:00
8:52 PM,50.0,46.9,89,29.92,9.0,SSW,11.5,-,N/A,,Mostly Cloudy,200,2013-04-25 00:52:00
9:09 PM,50.0,46.4,87,29.92,10.0,SSW,11.5,-,N/A,,Mostly Cloudy,200,2013-04-25 01:09:00
9:24 PM,50.0,46.4,87,29.91,9.0,SSW,9.2,-,N/A,,Mostly Cloudy,200,2013-04-25 01:24:00
9:52 PM,50.0,48.0,93,29.91,8.0,SSW,8.1,-,N/A,,Overcast,200,2013-04-25 01:52:00
10:52 PM,51.1,48.0,89,29.91,7.0,SSW,10.4,-,N/A,,Overcast,210,2013-04-25 02:52:00
11:40 PM,51.8,48.2,88,29.89,8.0,SSW,10.4,-,N/A,,Overcast,200,2013-04-25 03:40:00
11:52 PM,51.1,48.9,92,29.89,8.0,SSW,9.2,-,N/A,,Overcast,200,2013-04-25 03:52:00